AirNav   Everest Fuels
 
 1011 users online  

KNFE Fentress Naval Auxiliary Field
Fentress, Virginia, USA

GOING TO FENTRESS?


FAA INFORMATION EFFECTIVE 21 MAY 2020

Location

FAA Identifier: NFE
Lat/Long: 36-41-31.3310N 076-08-04.4305W
36-41.522183N 076-08.073842W
36.6920364,-76.1345640
(estimated)
Elevation: 16 ft. / 5 m (estimated)
Variation: 09W (1985)
Time zone: UTC -4 (UTC -5 during Standard Time)
Zip code: 23322

Airport Operations

Airport use: Private use. Permission required prior to landing
Activation date: 08/1943
Control tower: no
ARTCC: WASHINGTON CENTER
FSS: LEESBURG FLIGHT SERVICE STATION
Attendance: UNATNDD
Segmented circle: no
Lights: RY LGTS OPERATED BY CRASH CREW DURING SCHEDULED OPNS.

Airport Communications

OCEANA APPROACH: 123.9
OCEANA DEPARTURE: 123.9
WX AWOS-3 at CPK (9 nm W): 123.675 (757-204-4290)
WX ASOS at NTU (9 nm NE): PHONE DSN 433-3619 or 757-433-3619
WX ASOS at ORF (13 nm N): PHONE 757-460-9348
WX AWOS-3PT at PVG (16 nm W): 118.375 (757-465-2175)
WX AWOS-3 at ONX (18 nm S): 119.775 (252-453-8939)

Nearby radio navigation aids

VOR radial/distance  VOR name  Freq  Var
ORFr172/12.4NORFOLK VORTAC116.9007W
ECGr011/26.1ELIZABETH CITY VOR/DME112.5007W
CCVr199/39.9CAPE CHARLES VORTAC112.2010W

 
NDB name  Hdg/Dist  Freq  Var  ID
INGLE157/10.532909WOR --- .-.
WOODVILLE027/26.925410WLLW .-.. .-.. .--

Airport Services

Runway Information

Runway 5/23

Dimensions: 8004 x 175 ft. / 2440 x 53 m
Surface: asphalt
Weight bearing capacity: 
PCN 40 /R/C/W/T
Runway edge lights: low intensity
RUNWAY 5  RUNWAY 23
Latitude: 36-41.014033N36-42.030333N
Longitude: 076-08.595917W076-07.551767W
Elevation: 14.5 ft.14.2 ft.
Traffic pattern: leftleft
Runway heading: 049 magnetic, 040 true228 magnetic, 219 true
Touchdown point: yes, no lightsyes, no lights

Airport Ownership and Management from official FAA records

Ownership: U.S. Navy
Owner: US NAVY
OCEANOGRAPHIC OFC - CODE 3142
WASHINGTON, DC 20373

Additional Remarks

FOR CD CTC WASHINGTON ARTCC AT 703-771-3587.

Instrument Procedures

There are no published instrument procedures at KNFE.

Some nearby airports with instrument procedures:

KCPK - Chesapeake Regional Airport (9 nm W)
KNTU - Oceana Naval Air Station (Apollo Soucek Field) (9 nm NE)
KORF - Norfolk International Airport (13 nm N)
KPVG - Hampton Roads Executive Airport (16 nm W)
KNGU - Norfolk Naval Station (Chambers Field) (16 nm NW)
KONX - Currituck County Regional Airport (18 nm S)
 
Loc | Ops | Rwys | IFR | FBO | Links
Com | Nav | Svcs | Stats | Notes
Area around KNFE (Fentress Naval Auxiliary Field)
 
Road maps at: MapQuest Bing Google
 
Aerial photo
WARNING: Photo may not be current or correct
Aerial photo of KNFE (Fentress Naval Auxiliary Field)
Do you have a better or more recent aerial photo of Fentress Naval Auxiliary Field that you would like to share? If so, please send us your photo.

 
Sectional chart

 
Airport distance calculator
Flying to Fentress Naval Auxiliary Field? Find the distance to fly.

From to KNFE

Sunrise and sunset
Times for 24-May-2020
 Local
(UTC-4)
 Zulu
(UTC)
Morning civil twilight05:2209:22
Sunrise05:5109:51
Sunset20:1200:12
Evening civil twilight20:4100:41

Current date and time
Zulu (UTC)  24-May-2020 21:18:48
Local (UTC-4)  24-May-2020 17:18:48
 
METAR
KNFE 242056Z AUTO 04007KT 10SM OVC007 15/13 A3018 RMK AO2 SLP221 T01500133 58004
KCPK 
9nm W 
242055Z AUTO 03008KT 10SM OVC014 17/14 A3018 RMK AO2 T01680135
KNTU 
9nm NE 
242056Z 05008KT 6SM BR OVC005 14/12 A3018 RMK AO2 SLP221 T01390122 58002
KORF 
13nm N 
242051Z 08013KT 9SM OVC005 16/13 A3018 RMK AO2 SLP217 T01560133 58002
KNGU 
15nm NW 
242059Z 06009KT 6SM BR OVC006 16/14 A3020 RMK AO2 DZB42E58 SLP225 P0000 60000 T01610139 58002 $
KPVG 
16nm W 
242056Z AUTO VRB04KT 10SM OVC012 A3019 RMK AO2 SLPNO 6//// 55000 FZRANO $
KONX 
18nm S 
242055Z AUTO 02009KT 10SM OVC007 15/14 A3016 RMK AO2 T01480143
TAF
KNTU 
9nm NE 
2415/2515 05010G18KT 9999 BKN006 OVC025 QNH3010INS FM250100 VRB06KT 3200 BR OVC006 QNH3012INS TEMPO 2503/2509 1800 BR OVC007 T16/2415Z T13/2506Z FN00230
KORF 
13nm N 
241739Z 2418/2518 06012KT P6SM SCT008 OVC012 TEMPO 2418/2420 OVC008 FM242000 05010KT P6SM BKN015 FM250400 04006KT P6SM OVC005 FM251500 03008KT P6SM BKN012
KNGU 
15nm NW 
2415/2515 VRB06KT 8000 BR OVC015 QNH3013INS FM250100 06010KT 3200 BR OVC006 QNH3010INS TEMPO 2504/2510 1800 BR OVC007 T18/2418Z T14/2506Z FN00230
NOTAMs
Click for the latest NOTAMs
NOTAMs are issued by the DoD/FAA and will open in a separate window not controlled by AirNav.

 

 
 

Would you like to see your business listed on this page?

 If your business provides an interesting product or service to pilots, flight crews, aircraft, or users of the Fentress Naval Auxiliary Field, you should consider listing it here.  To start the listing process, click on the button below
 
Add a business
 

Other Pages about Fentress Naval Auxiliary Field

Update a link
 
Copyright © AirNav, LLC. All rights reserved. Privacy Policy  Contact